Location: Banksville Park
(38.5557°N, 75.1182°W)
Time: 18:54:23
(UTC+00:00)

SAR-Lupe-1 - Pass Details

Date: 21 January 2021
Orbit: 482 x 484 km, 98.2° (Epoch: 05 March)

Event Time Altitude Azimuth Distance (km) Brightness Sun altitude
Rises 11:31:12 0° 199° (SSW) 2,534 7.7 -8.6°
Reaches altitude 10° 11:33:43 10° 219° (SW) 1,660 6.6 -8.1°
Maximum altitude 11:36:16 18° 265° (W) 1,232 5.6 -7.6°
Drops below altitude 10° 11:38:50 10° 310° (NW) 1,669 6.2 -7.2°
Enters shadow 11:40:02 - 322° (NW) 2,060 6.7 -6.9°
